Regional Weather Roundup
Issued by NWS Wakefield, VA

Home | Current Version | Previous Version | Graphics & Text | Print | Product List | Glossary On
Versions: 1 2 3 4 5 6 7 8 9 10 11 12 13 14 15 16 17 18 19 20 21 22 23 24 25 26 27 28 29 30 31 32 33 34 35 36 37 38 39 40 41 42 43 44 45 46 47 48 49 50
000
ASUS41 KAKQ 162315
RWRAKQ

REGIONAL WEATHER ROUNDUP
NATIONAL WEATHER SERVICE WAKEFIELD VA
600 PM EST SAT DEC 16 2017

Note: "fair" indicates few or no clouds below 12,000 feet with no
significant weather and/or obstructions to visibility. * = Denotes
station may not report precipitation (e.g., rain,snow,etc.),
thunder or fog.

VAZ042-051-052>054-056-170000-
NORTHERN VIRGINIA

CITY           SKY/WX    TMP DP  RH WIND       PRES   REMARKS
WASH NATIONAL  PTCLDY    43  24  47 SW7       30.13R
DULLES         PTCLDY    37  23  56 S7        30.11R
FORT BELVOIR   CLEAR     42  25  51 CALM      30.13R
QUANTICO       CLEAR     42  29  59 SW7       30.15R
FREDERICKSBRG* CLEAR     41  26  54 S6        30.14R
STAFFORD*      CLEAR     41  23  48 S3        30.17R
WARRENTON      CLEAR     37  19  48 CALM      30.11R
CULPEPER*      CLEAR     35  21  56 CALM      30.13R
MANASSAS*      CLEAR     34  22  61 S5        30.13R
LEESBURG*      CLEAR     41  27  56 SW3       30.11R
WINCHESTER     CLEAR     36  23  60 CALM      30.08R
FRONT ROYAL*   CLEAR     43  25  49 CALM      30.08R
LURAY*         CLEAR     36  27  69 CALM      30.09R
$$

VAZ048-049-060>072-079>083-170000-
CENTRAL AND SOUTH CENTRAL VIRGINIA

CITY           SKY/WX    TMP DP  RH WIND       PRES   REMARKS
RICHMOND       PTCLDY    46  23  40 SW8       30.17R
CHESTERFIELD*  NOT AVBL
PETERSBURG*    CLEAR     36  23  60 CALM      30.18R
HANOVER        CLEAR     42  22  44 S3        30.18R
TAPPAHANNOCK*  CLEAR     38  24  55 S3        30.17R
QUINTON*       FAIR      41  24  51 CALM      30.16R
CHARLOTTSVILLE CLEAR     42  25  50 S9        30.10R
GORDONSVILLE*  CLEAR     39  25  57 CALM      30.12R
ORANGE*        CLEAR     41  25  52 CALM      30.12R
LOUISA*        CLEAR     41  23  48 S7        30.17R
BUMPASS*       FAIR      40  21  47 S3        30.14R
FARMVILLE*     CLEAR     40  28  61 CALM      30.14R
CREWE*         FAIR      40  25  54 CALM      30.16R
FORT PICKETT*  NOT AVBL
CHASE CITY*    FAIR      37  26  66 CALM      30.18R
CLARKSVILLE*   FAIR      39  27  60 SW5       30.19R
SOUTH HILL*    CLEAR     34  28  79 S3        30.25R
LAWRENCEVILLE* FAIR      37  26  63 CALM      30.19R
EMPORIA*       CLEAR     32  25  74 CALM      30.22
$$

VAZ088>098-170000-
SOUTHEAST VIRGINIA

CITY           SKY/WX    TMP DP  RH WIND       PRES   REMARKS
NORFOLK        CLEAR     42  22  44 S6        30.20R
VIRGINIA BEACH PTCLDY    41  21  44 S5        30.20R
NORFOLK NAVAL  PTCLDY    42  24  49 SW6       30.21R
WEST POINT*    CLEAR    N/A N/A N/A S3        30.20R
SALUDA*        FAIR      35  26  67 CALM      30.17R
NEWPORT NEWS   CLEAR     41  25  53 SW8       30.20R
LANGLEY AFB    CLEAR     42  24  49 SW5       30.19R
FORT EUSTIS    CLEAR     43  27  54 S3        30.17R
WILLIAMSBURG*  CLEAR     45  27  49 CALM      30.19R
HR EXEC AP*    FAIR      33  24  69 CALM      30.22R
FRANKLIN*      CLEAR     36  24  60 S3        30.21R
US460-WAKEFLD  CLEAR     42  25  50 CALM      30.19R
$$

VAZ020-022-025-037-045-170000-
WEST CENTRAL AND SOUTHWEST VIRGINIA

CITY           SKY/WX    TMP DP  RH WIND       PRES   REMARKS
STAUNTON*      CLEAR     41  23  48 S6        30.11R
WAYNESBORO*    CLEAR     41  22  47 SW6       30.09R
HOT SPRINGS VA CLEAR     34  19  54 W20G25    30.06R WCI  23
LYNCHBURG      CLEAR     41  24  51 SW7       30.14R
DANVILLE       CLEAR     40  24  53 SW5       30.20R
SOUTH BOSTON*  FAIR      42  23  46 S6        30.19R
MARTINSVILLE   CLEAR     42  23  47 SW3       30.20S
ROANOKE        PTCLDY    45  23  42 S5        30.17R
BLACKSBURG     CLEAR     40  24  53 W3        30.17R
DUBLIN*        CLEAR     38  25  59 SW9       30.17R
MARION*        CLEAR     37  22  54 W6        30.19R
HILLSVILLE*    CLEAR     39  20  45 CALM      30.14R
RICHLANDS*     FAIR      37  23  57 SW5       30.16R
WISE*          CLEAR     36  27  69 CALM      30.16S
ABINGDON*      CLOUDY    38  26  62 W3        30.18S
$$

MDZ021>025-VAZ099-100-170000-
SOUTHERN MARYLAND AND THE DELMARVA PENINSULA

CITY           SKY/WX    TMP DP  RH WIND       PRES   REMARKS
PATUXENT RIVER CLEAR     42  23  46 SW7       30.14R
BAY BRIDGE APT CLEAR     41  27  56 SW5       30.13R
LEONARDTOWN    CLEAR     41  27  56 S5          N/A
DOVER          CLEAR     36  28  72 S9        30.12R
GEORGETOWN     CLEAR     36  25  64 S6        30.15R
EASTON         PTCLDY    37  25  60 S6        30.17R
CAMBRIDGE      CLEAR     39  25  56 S5        30.14R
SALISBURY      CLEAR     36  26  67 S6        30.16R
OCEAN CITY     CLEAR     39  25  57 W8        30.17R
WALLOPS ISLAND CLEAR     38  25  59 SW5       30.18R
ACCOMACK*      CLEAR     39  26  60 SW7       30.17R
$$

NCZ012>017-030>032-170000-
NORTH CENTRAL AND EASTERN NORTH CAROLINA

CITY           SKY/WX    TMP DP  RH WIND       PRES   REMARKS
ROANOKE RAPIDS FAIR      37  27  65 SW3       30.21R
RALEIGH        CLOUDY    39  24  55 SW6       30.22R
ELIZABETH CITY CLEAR     37  28  70 S6        30.23R
AHOSKIE*       CLEAR     36  25  65 CALM      30.22R
EDENTON*       NOT AVBL
CURRITUCK*     CLEAR     38  29  68 CALM      30.23R
KILL DEVIL HLS CLEAR     37  26  63 CALM      30.21R
MANTEO         CLEAR     35  29  79 CALM      30.24R
CAPE HATTERAS  CLEAR     39  30  70 W5        30.24R
TARBORO*       NOT AVBL
GOLDSBORO      CLOUDY    42  26  52 CALM      30.23R
WASHINGTON     CLEAR     41  26  56 CALM      30.24R
GREENVILLE     CLEAR     43  27  52 CALM      30.24R
NEW BERN       CLOUDY    38  32  79 SW3       30.26R
WILMINGTON     PTCLDY    42  31  64 CALM      30.27R
$$

VAZ048-170000-
ELSEWHERE

CITY           SKY/WX    TMP DP  RH WIND       PRES   REMARKS
HARRISBURG PA  MOCLDY    39  28  64 NW3       30.08R
BALTIMORE      CLEAR     40  23  50 CALM      30.12R
ANNAPOLIS      CLEAR     42  24  49 CALM      30.13R
ANDREWS AFB    CLEAR     40  22  48 S6        30.11R
PHILADELPHIA   MOCLDY    41  25  53 SW15      30.10R
HENDERSON NC   CLOUDY    37  22  54 SW6       30.19R
GREENSBORO     CLOUDY    41  24  51 SW5       30.19R
ROCKY MOUNT    CLEAR     35  29  78 S5        30.23R
$$

VAZ100-170000-
MARINE

STATION/POSITION TIME  TEMP    WIND        PRES    WAVE   SWELL
                       AIR SEA DIR/SP/G            HT/PER HT/PER
                 (UTC) (F)     (DEG/KT/KT) (MB)    (FT/S) (FT/S)
BRANDYWINE LGT   2236   42     230/ 18/ 20 1020.1R
CAPE MAY NJ      2248   42 40  240/ 15/ 18 1019.7R
LEWES DE         2248   40 40  230/  5/  8 1020.4R
15NM E FENWICK I 2250   45 51  230/ 19/ 23 1021.0R   3/ 5
OCEAN-CITY-INLET 2248   41 42  260/  8/ 10 1021.7R
WACHAPREAGUE VA  2248   40 40  220/  3/  8 1021.8R
THOMAS POINT MD  2300   44 44  210/ 10/ 11   N/A
GOOSES REEF MD   2300   45 45  200/ 14/ 16 1020.8    1/ 2
COVE POINT MD    2248   43     210/ 10/ 10 1021.3R
SOLOMONS ISLAND  2248   43 45  210/  7/  9 1020.4R
BISHOPS HEAD MD  2248   42 37  210/  9/ 11 1021.3R
PINEY POINT MD   2242          220/  8/  8   N/A
POTOMAC MD       2300   44 45  210/  8/ 12 1020.7    1/ 2
CAMBRIDGE MD     2236   41 39              1021.1R
LEWISETTA VA     2248   43 39  220/  7/  8 1021.1R
RAPPAHANNOCK LGT 2248          220/ 14/ 17 1022.0R
STINGRAY PT      2300   44 45  240/  8/ 10 1022.0    1
YORK RVR RNG VA  2248   45     210/  9/ 11 1022.7R
YORKTOWN VA      2248   44 46  200/  4/  6 1021.9R
JAMESTOWN VA     2300      44  180/  4/  6   N/A     1
DOMINION TERM VA 2248   44     210/  6/  7 1022.7R
KIPTOPEKE VA     2248      44  240/ 12/ 15   N/A
CAPE HENRY VA    2248   43     200/  5/  7   N/A
WILLOUBY STN VA  2242          220/ 11/ 12 1022.2R
S CRANEY ISL VA  2248   44     220/  6/  9 1022.3R
CAPE HENRY BUOY  2300      52                N/A     2/ 3
1ST LANDING BUOY 2300   45 47  230/ 10/ 12 1022.6    1
CAPE CHARLES BUO 2251      51                N/A     2/ 3
64NM E OF VA BCH 2250   47 59  240/ 16/ 21 1022.9R   2/ 6   2/ 7
DUCK PIER NC     2248   43 53  200/  5/  7 1023.0R
44100 DUCK FRF   2215      54                N/A     2/ 6
44056 DUCK FRF   2300      54                N/A     2/ 6
OREGON INLET NC  2242   43 48  210/ 12/ 13 1023.5R
HATTERAS NC      2248   42 52  240/  4/  6 1023.8R
DIAMOND SHLS NC  2300   49 73  280/ 12/ 16 1023.9
CAPE LOOKOUT NC  2300          270/  7/  9 1024.7R
$$



USA.gov is the U.S. government's official web portal to all federal, state and local government web resources and services.